www.pogodaiklimat.ru

Погода и климат >> Архив погоды >> Австралия >> Южная Австралия >> Марри


ПОГОДА в Марри

  • Прогноз погоды в Марри
  • Монитор погоды в Марри

АРХИВ ПОГОДЫ в Марри

Время (UTC), дата Ветер
(напр.,м/с)
 
Видим.   Явления Облачность Т
(С)
Тd
(С)
f
(%)
Тe
(С)
Тes
(С)
Комфортность P
(гПа)
Po
(гПа)
Тmin
(С)
Tmax
(С)
R
(мм)
R24
(мм)
S
(см)
19 8.06 ЮВ 3 н/о н/о +9.8 +2.6 61 +8 +8 1020.5 1014.4
20 8.06 В 2 н/о н/о +9.9 +2.3 59 +9 +9 1020.6 1014.5
21 8.06 ЮВ 4 н/о н/о +10.3 +2.9 60 +8 +8 1020.4 1014.3
22 8.06 ЮВ 3 н/о н/о +10.9 +3.5 60 +10 +10 1020.9 1014.8
23 8.06 В 2 н/о н/о +12.6 +7.9 73 +12 +12 1020.9 1014.8
00 9.06 С 3 н/о н/о +16.3 +10.6 69 +16 +16 1020.8 1014.7
01 9.06 С 6 н/о н/о +18.2 +10.6 61 +18 +18 1020.1 1014.0
02 9.06 С 8 н/о н/о +19.5 +10.0 54 +20 +20 1019.0 1012.9 +9.7
03 9.06 С 6 н/о н/о +20.3 +9.5 50 +21 +21 комфорт 1018.1 1012.0
04 9.06 С 6 н/о н/о +21.6 +7.8 41 +23 +23 комфорт 1016.9 1010.8
05 9.06 С 8 н/о н/о +21.7 +6.0 36 +22 +22 комфорт 1015.8 1009.7
06 9.06 С 7 н/о н/о +21.9 +6.2 36 +23 +23 комфорт 1015.1 1009.0
07 9.06 С 7 н/о н/о +21.4 +5.3 35 +22 +22 комфорт 1014.8 1008.7
08 9.06 С 5 н/о н/о +20.2 +5.8 39 +21 +21 комфорт 1014.7 1008.6
09 9.06 С 4 н/о н/о +17.3 +5.3 45 +17 +17 1014.6 1008.5
10 9.06 С 5 н/о н/о +16.1 +5.4 49 +15 +15 1015.0 1008.9
11 9.06 СВ 4 н/о н/о +15.2 +5.4 52 +14 +14 1015.2 1009.1
12 9.06 С 3 н/о н/о +14.1 +6.0 58 +13 +13 1015.4 1009.3
13 9.06 С 4 н/о н/о +14.4 +9.0 70 +13 +13 1015.5 1009.4
14 9.06 СВ 4 н/о н/о +13.9 +10.1 78 +12 +12 1015.1 1009.0 +22.5
15 9.06 СВ 5 н/о н/о +14.4 +13.0 91 +13 +13 1014.4 1008.3
16 9.06 С 4 н/о н/о +14.5 +13.5 94 +13 +13 1014.1 1008.0
17 9.06 С 1 н/о н/о +14.1 +13.3 95 +15 +15 1014.4 1008.3
18 9.06 З 2 н/о н/о +13.7 +12.9 95 +13 +13 1015.0 1008.9
19 9.06 З 1 н/о н/о +13.1 +12.3 95 +14 +14 1015.2 1009.1
20 9.06 штиль 0 н/о н/о +12.6 +11.8 95 +12 +12 1015.6 1009.5
21 9.06 СЗ 2 н/о н/о +11.0 +10.2 95 +10 +10 1016.7 1010.6
22 9.06 З 3 н/о н/о +10.1 +9.5 96 +8 +8 1017.4 1011.3
23 9.06 ЮЗ 2 н/о н/о +13.7 +9.9 78 +13 +13 1018.0 1011.9
00 10.06 Ю 3 н/о н/о +18.3 +8.0 51 +19 +19 1018.6 1012.5
01 10.06 Ю 6 н/о н/о +20.2 +6.5 41 +21 +21 комфорт 1018.8 1012.7
02 10.06 Ю 5 н/о н/о +20.8 +4.8 35 +22 +22 комфорт 1018.4 1012.3 +9.9
03 10.06 Ю 5 н/о н/о +22.0 +2.7 28 +22 +22 комфорт 1017.8 1011.7
04 10.06 Ю 5 н/о н/о +22.7 +0.5 23 +22 +22 комфорт 1017.2 1011.1
05 10.06 ЮЗ 3 н/о н/о +22.6 +0.4 23 +22 +22 комфорт 1017.3 1011.2
06 10.06 Ю 3 н/о н/о +22.2 +0.7 24 +22 +22 комфорт 1017.1 1011.0
07 10.06 Ю 2 н/о н/о +22.1 +1.7 26 +22 +22 комфорт 1017.3 1011.2
08 10.06 В 2 н/о н/о +20.1 +1.0 28 +21 +21 комфорт 1017.7 1011.6
09 10.06 ЮВ 3 н/о н/о +16.4 -0.3 32 +16 +16 1018.4 1012.3
10 10.06 Ю 4 н/о н/о +14.4 -0.8 35 +14 +14 1019.0 1012.9
11 10.06 Ю 2 н/о н/о +12.3 -0.6 41 +12 +12 1019.5 1013.4
12 10.06 Ю 3 н/о н/о +11.7 -1.1 41 +10 +10 1019.6 1013.5
13 10.06 Ю 2 н/о н/о +9.4 -2.5 43 +8 +8 1019.7 1013.6
14 10.06 ЮВ 3 н/о н/о +8.0 -3.5 44 +6 +6 1019.6 1013.5 +23.6
15 10.06 Ю 4 н/о н/о +7.7 -2.6 48 +5 +5 1019.5 1013.4
16 10.06 ЮВ 5 н/о н/о +7.9 -2.1 49 +5 +5 1019.4 1013.3
17 10.06 ЮВ 4 н/о н/о +6.8 -2.9 50 +4 +4 1019.6 1013.5
18 10.06 ЮВ 5 н/о н/о +7.0 -2.7 50 +3 +3 1019.3 1013.2
19 10.06 ЮВ 4 н/о н/о +6.4 -3.0 51 +3 +3 1019.1 1013.0
20 10.06 ЮВ 4 н/о н/о +6.2 -2.9 52 +3 +3 1019.3 1013.2
21 10.06 ЮВ 4 н/о н/о +5.9 -3.4 51 +3 +3 1020.0 1013.9
22 10.06 ЮВ 4 н/о н/о +6.3 -3.6 49 +3 +3 1020.9 1014.8
23 10.06 ЮВ 5 н/о н/о +10.2 -2.1 42 +8 +8 1021.2 1015.1
00 11.06 ЮВ 4 н/о н/о +14.7 -0.6 35 +14 +14 1021.4 1015.3
01 11.06 ЮВ 4 н/о н/о +19.4 +0.9 29 +20 +20 1021.3 1015.2
02 11.06 В 4 н/о н/о +24.1 +6.8 33 +24 +24 комфорт 1020.3 1014.2 +5.8
03 11.06 С 6 н/о н/о +26.2 +10.0 36 +27 +27 жарко 1018.7 1012.6
04 11.06 С 7 н/о н/о +27.9 +11.5 36 +29 +29 жарко 1017.7 1011.6
05 11.06 С 8 н/о н/о +27.9 +11.5 36 +29 +29 жарко 1017.1 1011.0
06 11.06 С 8 н/о н/о +28.4 +11.5 35 +29 +29 жарко 1016.8 1010.7
07 11.06 С 6 н/о н/о +27.9 +11.5 36 +29 +29 жарко 1016.6 1010.5
08 11.06 С 4 н/о н/о +26.9 +11.4 38 +28 +28 жарко 1016.5 1010.4
09 11.06 СВ 4 н/о н/о +25.0 +11.2 42 +26 +26 жарко 1016.8 1010.7
10 11.06 СВ 4 н/о н/о +23.2 +10.6 45 +25 +25 комфорт 1017.1 1011.0
11 11.06 СВ 5 н/о н/о +23.0 +10.4 45 +25 +25 комфорт 1017.4 1011.3
12 11.06 СВ 5 н/о н/о +22.9 +10.3 45 +25 +25 комфорт 1017.5 1011.4
13 11.06 СВ 8 н/о н/о +23.0 +9.8 43 +25 +25 комфорт 1016.6 1010.5
14 11.06 СВ 7 н/о н/о +22.5 +10.3 46 +24 +24 комфорт 1016.0 1009.9 +29.0
15 11.06 СВ 7 н/о н/о +22.2 +10.0 46 +24 +24 комфорт 1015.7 1009.6
16 11.06 С 8 н/о н/о +21.9 +9.8 46 +23 +23 комфорт 1015.3 1009.2
17 11.06 С 7 н/о н/о +21.4 +9.9 48 +23 +23 комфорт 1015.1 1009.0
18 11.06 С 9 н/о н/о +21.1 +10.0 49 +23 +23 комфорт 1013.8 1007.7
19 11.06 С 9 н/о н/о +21.5 +10.9 51 +23 +23 комфорт 1013.3 1007.2
20 11.06 С 10 н/о н/о +21.8 +11.2 51 +24 +24 комфорт 1013.2 1007.1
21 11.06 С 11 н/о н/о +22.1 +10.9 49 +24 +24 комфорт 1013.4 1007.3
22 11.06 З 10 н/о н/о +20.9 +12.6 59 +23 +23 комфорт 1016.8 1010.7
23 11.06 З 6 н/о н/о +19.4 +17.5 89 +21 +21 комфорт 1017.4 1011.3
00 12.06 Ю 3 н/о н/о +19.1 +18.3 95 +21 +21 комфорт 1018.4 1012.3
01 12.06 ЮВ 5 н/о н/о +19.1 +18.3 95 +21 +21 комфорт 1018.1 1012.0
02 12.06 ЮВ 4 н/о н/о +19.6 +18.8 95 +22 +22 комфорт 1017.5 1011.4 +14.4
03 12.06 ЮВ 5 н/о н/о +19.5 +18.7 95 +22 +22 комфорт 1017.1 1011.0
04 12.06 Ю 7 н/о н/о +16.7 +16.1 96 +15 +15 1017.0 1010.9
05 12.06 ЮВ 5 н/о {туман} н/о +16.6 +16.0 96 +16 +16 1016.8 1010.7 0.6
06 12.06 Ю 4 н/о н/о +16.9 +16.1 95 +16 +16 1017.0 1010.9
07 12.06 Ю 4 н/о н/о +17.0 +16.2 95 +16 +16 1017.2 1011.1
08 12.06 Ю 3 н/о н/о +16.7 +16.1 96 +17 +17 1017.5 1011.4
09 12.06 штиль 0 н/о н/о +15.7 +15.2 97 +15 +15 1018.4 1012.3
10 12.06 ЮЗ 2 н/о н/о +15.3 +15.0 98 +15 +15 1019.1 1013.0
11 12.06 ЮЗ 2 н/о н/о +15.2 +14.7 97 +15 +15 1019.7 1013.6
12 12.06 ЮЗ 2 н/о н/о +14.2 +13.9 98 +14 +14 1019.9 1013.8
13 12.06 ЮЗ 4 н/о н/о +13.0 +12.8 99 +11 +11 1020.2 1014.1
14 12.06 ЮЗ 3 н/о н/о +11.7 +11.5 99 +10 +10 1020.4 1014.3 +23.3
15 12.06 Ю 2 н/о н/о +11.4 +11.2 99 +10 +10 1020.1 1014.0
16 12.06 ЮЗ 3 н/о н/о +10.3 +10.3 100 +8 +8 1019.8 1013.7
17 12.06 ЮЗ 4 н/о н/о +9.3 +9.3 100 +6 +6 1020.1 1014.0
18 12.06 ЮЗ 4 н/о н/о +9.8 +9.8 100 +7 +7 1020.1 1014.0
19 12.06 Ю 4 н/о н/о +10.1 +10.1 100 +7 +7 1020.5 1014.4
20 12.06 Ю 6 н/о {туман} н/о +10.1 +10.1 100 +6 +6 1020.7 1014.6
21 12.06 Ю 5 н/о н/о +10.0 +10.0 100 +7 +7 1021.3 1015.2
22 12.06 Ю 4 н/о н/о +9.2 +9.1 99 +6 +6 1022.0 1015.9
23 12.06 Ю 2 н/о {туман} н/о +10.2 +9.9 98 +8 +8 1022.7 1016.6 0.8
00 13.06 Ю 3 н/о н/о +14.6 +13.8 95 +14 +14 1023.1 1017.0
01 13.06 Ю 4 н/о н/о +17.2 +11.0 67 +17 +17 1023.1 1017.0
02 13.06 Ю 6 н/о н/о +18.5 +7.6 49 +18 +18 1022.8 1016.7 +8.4
03 13.06 Ю 6 н/о н/о +19.5 +6.6 43 +20 +20 1021.7 1015.6
04 13.06 ЮЗ 6 н/о н/о +19.4 +4.7 38 +20 +20 1020.9 1014.8
05 13.06 Ю 5 н/о н/о +19.5 +4.4 37 +20 +20 1020.4 1014.3
06 13.06 Ю 6 н/о н/о +19.4 +4.7 38 +20 +20 1020.5 1014.4
07 13.06 Ю 6 н/о н/о +18.1 +3.6 38 +18 +18 1021.0 1014.9
08 13.06 Ю 5 н/о н/о +16.8 +5.4 47 +16 +16 1021.3 1015.2
09 13.06 Ю 4 н/о н/о +15.0 +5.2 52 +14 +14 1021.6 1015.5
10 13.06 Ю 3 н/о н/о +13.9 +5.5 57 +13 +13 1022.5 1016.4
11 13.06 ЮЗ 5 н/о н/о +12.7 +5.6 62 +11 +11 1022.6 1016.5
12 13.06 ЮЗ 4 н/о н/о +10.4 +5.2 70 +8 +8 1022.8 1016.7
13 13.06 Ю 3 н/о н/о +10.3 +6.6 78 +9 +9 1022.8 1016.7
14 13.06 Ю 2 н/о н/о +9.4 +5.6 77 +8 +8 1022.4 1016.3 +20.1
15 13.06 Ю 2 н/о н/о +7.4 +5.2 86 +5 +5 1022.3 1016.2
16 13.06 ЮВ 4 н/о н/о +7.0 +5.8 92 +4 +4 1022.3 1016.2
17 13.06 Ю 2 н/о н/о +6.9 +6.2 95 +4 +4 1022.5 1016.4
18 13.06 Ю 3 н/о н/о +6.4 +5.7 95 +3 +3 1022.1 1016.0
19 13.06 Ю 3 н/о н/о +6.7 +6.1 96 +4 +4 1021.9 1015.8
20 13.06 Ю 2 н/о н/о +5.1 +4.5 96 +3 +3 1021.9 1015.8
21 13.06 Ю 2 н/о н/о +5.1 +4.5 96 +3 +3 1022.4 1016.3
22 13.06 В 1 н/о н/о +4.4 +3.7 95 +4 +4 1023.0 1016.9
23 13.06 ЮВ 2 н/о н/о +6.8 +6.1 95 +4 +4 1023.7 1017.6
00 14.06 ЮВ 2 н/о н/о +10.7 +7.4 80 +9 +9 1024.2 1018.1
01 14.06 Ю 1 н/о н/о +14.7 +7.7 63 +15 +15 1024.1 1018.0
02 14.06 Ю 3 н/о н/о +17.5 +7.0 50 +18 +18 1023.6 1017.5 +4.1
03 14.06 Ю 2 н/о н/о +18.6 +5.8 43 +19 +19 1022.4 1016.3
04 14.06 Ю 3 н/о н/о +19.4 +5.8 41 +20 +20 1021.7 1015.6
05 14.06 ЮЗ 5 н/о н/о +19.1 +5.9 42 +19 +19 1021.0 1014.9
06 14.06 Ю 6 н/о н/о +19.3 +6.1 42 +20 +20 1020.6 1014.5
07 14.06 Ю 5 н/о н/о +18.8 +4.9 40 +19 +19 1020.8 1014.7
08 14.06 Ю 5 н/о н/о +17.3 +5.6 46 +17 +17 1021.1 1015.0
09 14.06 Ю 4 н/о н/о +14.9 +5.4 53 +14 +14 1021.8 1015.7
10 14.06 Ю 4 н/о н/о +13.1 +5.3 59 +12 +12 1022.4 1016.3
11 14.06 Ю 5 н/о н/о +12.0 +5.2 63 +10 +10 1022.7 1016.6
12 14.06 Ю 4 н/о н/о +12.0 +5.9 66 +10 +10 1023.0 1016.9
13 14.06 В 2 н/о н/о +10.6 +4.7 67 +10 +10 1023.2 1017.1
14 14.06 ЮЗ 2 н/о н/о +10.1 +5.5 73 +9 +9 1022.8 1016.7 +20.4
15 14.06 ЮЗ 1 н/о н/о +9.3 +5.5 77 +10 +10 1022.6 1016.5
16 14.06 ЮЗ 2 н/о н/о +8.5 +5.3 80 +7 +7 1022.4 1016.3
17 14.06 штиль 0 н/о н/о +7.0 +3.8 80 +6 +6 1022.3 1016.2
18 14.06 ЮЗ 3 н/о н/о +5.6 +2.4 80 +3 +3 1022.1 1016.0
19 14.06 Ю 1 н/о н/о +5.7 +2.7 81 +5 +5 1022.0 1015.9
20 14.06 ЮВ 3 н/о н/о +5.3 +2.3 81 +2 +2 1021.8 1015.7
21 14.06 Ю 4 н/о н/о +5.6 +4.7 94 +1 +1 1022.0 1015.9
22 14.06 Ю 4 н/о н/о +6.8 +5.9 94 +3 +3 1022.9 1016.8
23 14.06 ЮВ 3 н/о н/о +7.9 +5.5 85 +5 +5 1023.9 1017.8
00 15.06 ЮВ 3 н/о н/о +11.7 +5.3 65 +10 +10 1024.4 1018.2
01 15.06 В 3 н/о н/о +15.9 +5.5 50 +16 +16 1024.0 1017.9
02 15.06 СВ 3 н/о н/о +18.3 +4.8 41 +19 +19 1023.3 1017.2 +4.4
03 15.06 С 2 н/о н/о +19.2 +4.2 37 +20 +20 1022.3 1016.2
04 15.06 З 2 н/о н/о +18.5 +3.6 37 +19 +19 1021.3 1015.2
05 15.06 С 1 н/о н/о +18.9 +3.5 36 +20 +20 1021.0 1014.9
06 15.06 СЗ 2 н/о н/о +18.6 +2.9 35 +20 +20 1020.6 1014.5
07 15.06 СВ 2 н/о н/о +19.1 +2.9 34 +20 +20 1020.4 1014.3
08 15.06 ЮВ 2 н/о н/о +17.5 +2.7 37 +18 +18 1020.5 1014.4
09 15.06 ЮЗ 1 н/о н/о +15.9 +2.7 41 +17 +17 1021.3 1015.2
10 15.06 штиль 0 н/о н/о +15.8 +2.6 41 +16 +16 1021.4 1015.3
11 15.06 СЗ 1 н/о н/о +12.9 +1.9 47 +13 +13 1021.5 1015.4
12 15.06 ЮЗ 3 н/о н/о +12.0 +1.6 49 +11 +11 1022.2 1016.1
13 15.06 З 2 н/о н/о +13.2 +2.7 49 +13 +13 1022.2 1016.1
14 15.06 С 1 н/о н/о +13.3 +2.5 48 +14 +14 1022.4 1016.3 +19.9
15 15.06 З 2 н/о н/о +12.7 +2.8 51 +13 +13 1022.5 1016.4
16 15.06 СЗ 3 н/о н/о +10.6 +1.9 55 +9 +9 1022.0 1015.9
17 15.06 ЮЗ 3 н/о н/о +9.1 +2.0 61 +7 +7 1021.8 1015.7
18 15.06 ЮЗ 3 н/о н/о +7.6 +1.2 64 +5 +5 1021.6 1015.5
19 15.06 ЮЗ 3 н/о н/о +7.2 +0.9 64 +5 +5 1021.5 1015.4
20 15.06 штиль 0 н/о н/о +5.9 -0.6 63 +5 +5 1021.5 1015.4

 

Местоположение метеостанции Марри (Южная Австралия, Австралия): широта -29.66 долгота 138.06 высота над уровнем моря 51 м.

В архиве по умолчанию представлена погода в Марри за последнюю неделю. Архивные данные за месяц целиком и за предыдущие месяцы, начиная с января 2011 года, Вы можете получить, выбрав интересующий диапазон дат из раскрывающегося списка и нажав кнопку "Ввод!".


*Определитесь, кто Вы:
робот инопланетянин человек

Внимание! Время в таблицах - всемирное. Для получения местного времени необходимо прибавить поправку, которая равна 9.5 ч.

Смотрите также архив погоды в соседних городах и на ближайших метеорологических станциях:

Погода в Ли-Крике (Южная Австралия, Австралия) (110 км)
Погода в Олимпик Дэм (Южная Австралия, Австралия) (146 км)
Погода на Аэродроме Вумера (Южная Австралия, Австралия) (205 км)
Погода в Мумбе (Южная Австралия, Австралия) (271 км)
Погода в Порт Огаста (Южная Австралия, Австралия) (320 км)
Погода в Кубер-Педи (Южная Австралия, Австралия) (332 км)
Погода в Однадатте (Южная Австралия, Австралия) (346 км)
Погода в Юнте (Южная Австралия, Австралия) (354 км)
Погода в Таркуле (Южная Австралия, Австралия) (355 км)
Погода в Уиолле (Южная Австралия, Австралия) (383 км)

Пояснения к столбцам:

Ветер - указаны скорость ветра в м/с - средняя за 10 мин, порывы в срок и между сроками (в фигурных скобках) и направление, откуда дует ветер: С - северный, СВ - северо-восточный, В - восточный, ЮВ - юго-восточный, Ю - южный, ЮЗ - юго-западный, З - западный, СЗ - северо-западный.
Видимость - горизонтальная дальность видимости в метрах или километрах. При видимости от 1 до 10 км при отсутствии осадков обычно наблюдается дымка, при ухудшении видимости до 1 км и менее - туман. В сухую погоду видимость может ухудшаться дымом, пылью или мглою.
Явления - указаны атмосферные явления, наблюдавшиеся в срок или в последний час перед сроком; фигурными скобками обозначены явления, наблюдавшиеся между сроками (за 1-3 часа до срока); квадратными скобками обозначены град или гололедные отложения с указанием их диаметра в мм.
Облачность - указаны через наклонную черту общая и нижняя облачность в баллах и высота нижней границы облаков в метрах; квадратными скобками обозначены формы облаков: Ci - перистые, Cs - перисто-слоистые, Cc - перисто-кучевые, Ac - высококучевые, As - высокослоистые, Sc - слоисто-кучевые, Ns - слоисто-дождевые, Cu - кучевые, Cb - кучево-дождевые. Подробнее классификацию облаков см. в Атласе облаков (PDF).
T - Температура воздуха - температура, измеренная на высоте 2 м над землей.
Td - Температура точки росы - температура, при понижении до которой содержащийся в воздухе водяной пар достигнет насыщения.
f - Относительная влажность воздуха - влажноcть воздуха, измеренная на высоте 2 м над землей.
Te - Эффективная температура - температура, которую ощущает одетый по сезону человек в тени. Характеристика душности погоды. При расчете учитывается влияние влажности воздуха и скорости ветра на теплоощущения человека.
Tes - Эффективная температура на солнце - температура, которую ощущает человек, с поправкой на солнечный нагрев. Характеристика знойности погоды. Зависит от высоты солнца над горизонтом, облачности и скорости ветра. Ночью, в пасмурную погоду, а также при ветре 12 м/с и более поправка равна нулю.
P - Атмосферное давление - приведенное к уровню моря атмосферное давление.
Po - Атмосферное давление - измеренное на уровне метеостанции атмосферное давление.
Tmin - Минимальная температура - минимум температуры воздуха на высоте 2 м над землей.
Tmax - Максимальная температура - максимум температуры воздуха на высоте 2 м над землей.
R - Количество осадков - Количество выпавших осадков за период времени, мм. При наведении курсора мыши на число - период времени, за который выпало указанное количество осадков.
R24 - Количество осадков - Количество выпавших осадков за 24 часа, мм.
S - Снежный покров - Высота снежного покрова, см. При наведении курсора мыши на число - состояние снежного покрова и степень покрытия местности в баллах.